STARLINK-36152, 66968

Orbit data source: Space-Track

STARLINK-36152, 66968 is a payload satellite owned by SpaceX/Seattle (US) in LEO that was launched on Mon, 08 Dec 2025 UTC via an FALCON 9 launch vehicle from the Air Force Eastern Test Range (AFETR). Payload-class satellites include a variety of spacecraft equipped with specific instruments for various scientific and technological missions. These include communications satellites like Starlink; space stations such as the ISS; scientific satellites like the Hubble; Earth observation satellites from companies like Planet Labs, Umbra, and HawkEye 360; GPS; miniature CubeSats for education and research; and military/defense satellites.

Loading next visibility...
Identifier
66968, 2025-288K
Orbit
LEO
Country
Flag of USUS
Related business
Manufacturer
SpaceX/Seattle
Mission
Operational Commercial Communications
Bus & Motor
STARLINK V2MO, Unknown motor
Mass
575 kg wet, ~530 kg dry
Launch date (UTC)
2025-12-08 (5 months ago)
Launch vehicle
FALCON 9
Launch site
Air Force Eastern Test Range (AFETR)
Object type
Payload
Rocket body
Debris
Shape & HBR
Box + 2 Pan, 17.7 m
Radar Cross Section
36.964 m²

Expand to show TLE details & history
Last TLE update: 13 hours ago

TLE from 13 hours ago
0 STARLINK-36152
1 66968U 25288K   26130.01483694  .00012431  00000-0  46040-3 0  9995
2 66968  43.0017  37.3498 0001473 261.9492  98.1193 15.27586042 24663
Epoch: 2026-05-10T00:21Z
TLE epoch observation values (Epoch: 2026-05-10T00:21:21.911Z)
Latitude
0.00001°
Longitude
164.18452°
Altitude
482.949 km
Speed
7.626 km/s
True Right ascension
02h 29m 23s
True Declination
0° 00' 00"
Sunlit
Object was in daylight at epoch
Visualization orbit readout
Latitude
Unknown
Longitude
Unknown
Altitude
Unknown
Speed
Unknown
Apparent Right ascension
Unknown
Apparent Declination
Unknown
Sunlit
N/A
Visualization observer readout
Local Sidereal Time
21:22:17
Azimuth
Unknown
Elevation
Unknown
Doppler factor
Unknown
Orbital elements
Apogee altitude
485.987 km
Perigee altitude
483.965 km
Semi-major axis
6,863.113 km
Eccentricity
0.00015
Inclination
43.0017°
RAAN
37.3498°
Arg. of periapsis
261.9492°
True anomaly
98.13601°
Mean anomaly
98.1193°
Eccentric anomaly
98.12765°
Mean motion
3.81735 °/min
Orbital period
94.31 mins
BSTAR
0.0004604
Loading maneuver chart data...
Computing Atmospheric mass density...
Loading historical data...
Loading historical data...
Loading historical data...
Loading historical data...
Loading historical data...
Loading historical data...
Loading historical data...

Documentation

Showing up to 5 results
|